Location: Casa Ontalba
(40.0816°N, 3.8101°W)
Time: 05:47:20
(UTC+00:00)

Daily predictions for brighter satellites

Satellite Brightness Start Highest point End
(mag) Time Altitude Azimuth Time Altitude Azimuth Time Altitude Azimuth
Gbstr 26 Del rocket 4.1 00:01:52 10° NW 00:07:36 67° NE 00:09:37 45° E
Cosmos 2227 Rocket 2.8 00:03:23 10° NNW 00:08:52 47° ENE 00:09:27 46° E
S3M 4.0 00:09:16 10° NNW 00:15:29 64° W 00:15:45 63° WSW
GEOS 3 Rocket 4.3 00:11:31 10° NNE 00:16:36 51° NW 00:17:32 45° W
Cosmos 1655 Rocket 4.0 00:25:42 71° WSW 00:26:10 74° W 00:32:34 10° N
Cosmos 1125 Rocket 3.7 00:30:24 65° NE 00:30:24 65° NE 00:34:58 10° NNE
Cosmos 1315 Rocket 4.5 00:28:09 10° N 00:30:17 31° N 00:30:17 31° N
Cosmos 1932 4.3 00:31:36 74° WSW 00:32:04 79° WNW 00:38:26 10° NNE
Geosat 4.1 00:32:09 10° NNE 00:36:36 70° N 00:36:36 70° N
H-2A R/B 4.4 00:41:17 21° ENE 00:41:17 21° ENE 00:43:47 10° NNE
Cosmos 1048 Rocket 4.3 00:37:46 10° NNW 00:42:19 59° WNW 00:42:19 59° WNW
Cosmos 2058 Rocket 3.9 00:40:48 10° N 00:44:04 49° N 00:44:04 49° N
Nadezhda 2 Rocket 4.4 00:47:03 73° SE 00:47:33 79° E 00:53:57 10° N
Cosmos 2263 Rocket 2.4 00:52:30 10° NNW 00:58:04 60° ENE 00:58:41 57° E
USA 32 4.4 01:00:07 54° E 01:00:07 54° E 01:05:04 10° NNE
Cosmos 2369 3.8 01:01:33 65° E 01:01:33 65° E 01:06:56 10° NNE
CZ-2C R/B 3.1 00:59:56 10° NNE 01:04:01 62° NE 01:04:01 62° NE
Cosmos 1602 Rocket 4.5 01:07:34 43° NE 01:07:34 43° NE 01:10:52 10° NNE
Cosmos 2298 Rocket 4.2 01:07:44 63° E 01:07:44 63° E 01:12:39 10° NNE
Cosmos 1758 Rocket 4.2 01:09:37 54° NNE 01:09:37 54° NNE 01:13:05 10° N
Cosmos 1626 Rocket 4.3 01:11:27 50° NNW 01:11:27 50° NNW 01:14:48 10° N
SL-16 R/B 3.4 01:13:38 29° ESE 01:13:53 29° ESE 01:18:41 10° NE
Cosmos 2333 Rocket 4.0 01:15:34 18° ESE 01:16:21 18° E 01:20:06 10° ENE
Cosmos 2297 Rocket 4.0 01:15:52 10° WNW 01:18:18 17° W 01:18:18 17° W
Cosmos 2219 3.2 01:14:28 10° NNW 01:20:10 75° ENE 01:20:47 67° ESE
ATLAS 2AS CENTAUR R/B 2.7 01:19:25 10° NNW 01:26:11 74° NE 01:29:12 35° SE
Cosmos 1980 Rocket 2.7 01:25:56 45° W 01:26:32 46° WNW 01:31:56 10° NNE
USA 215 3.3 01:30:25 54° WSW 01:30:25 54° WSW 01:36:34 10° NW
Cosmos 921 Rocket 3.6 01:27:08 10° N 01:31:10 54° NE 01:31:10 54° NE
Cosmos 2151 3.5 01:35:22 55° NNE 01:35:22 55° NNE 01:38:42 10° NNE
Cosmos 1386 Rocket 4.4 01:34:46 61° WSW 01:35:30 66° W 01:41:36 10° N
NPP 4.3 01:31:36 10° NNE 01:36:44 43° E 01:37:31 40° ESE
CZ-2C R/B 2.7 01:37:54 63° W 01:37:54 63° W 01:43:28 10° NNW
Lacrosse 5 rocket 2.7 01:35:02 10° NW 01:37:12 31° NNW 01:37:12 31° NNW
Resurs 1-4 Rocket 3.6 01:42:19 10° NE 01:46:44 26° E 01:48:25 22° SE
Cosmos 2227 Rocket 3.7 01:48:09 10° NW 01:51:13 21° W 01:51:13 21° W
Cosmos 1844 Rocket 4.1 01:48:45 10° N 01:53:52 35° ENE 01:58:56 10° SE
Cosmos 1238 Rocket 3.1 01:51:29 10° N 01:56:37 88° W 01:56:48 83° S
Cosmos 2237 4.1 01:58:13 62° SW 01:59:07 76° WNW 02:04:50 10° NNE
CZ-2D R/B 3.4 01:55:45 10° NE 02:00:20 31° E 02:02:07 25° SE
IDEFIX/ARIANE 42P 2.4 01:56:15 10° NNE 02:01:27 87° ESE 02:02:09 68° S
Meteor 1-19 Rocket 4.3 01:57:10 10° N 02:02:44 74° E 02:04:33 44° SSE
Cosmos 1953 Rocket 3.7 02:04:16 62° ESE 02:04:26 63° E 02:08:43 10° NNE
Cosmos 2360 Rocket 3.1 02:03:04 31° SE 02:04:35 37° ESE 02:09:43 10° NE
H-2A R/B 2.7 02:01:00 10° NNE 02:05:05 43° E 02:05:29 42° ESE
Cosmos 2221 3.0 02:01:30 10° NNW 02:04:55 47° NW 02:04:55 47° NW
SeaSat 1 4.1 02:02:18 10° ESE 02:06:38 33° NE 02:10:58 10° N
Cosmos 2278 3.6 02:08:06 59° S 02:09:14 84° ESE 02:14:55 10° NNE
Cosmos 1346 Rocket 3.1 02:09:58 57° N 02:09:58 57° N 02:13:00 10° N
Cosmos 1733 4.3 02:14:22 31° NE 02:14:22 31° NE 02:16:21 10° NNE
H-2A R/B 4.2 02:16:38 19° WNW 02:16:38 19° WNW 02:18:14 10° NW
Cosmos 2219 Rocket 3.7 02:16:52 20° SE 02:19:22 27° ESE 02:24:00 10° NE
Molniya-1 3.5 02:19:20 63° WNW 02:19:30 64° NW 02:25:19 10° NNE
Cosmos 1269 Rocket 4.2 02:15:32 10° NNW 02:20:50 71° ENE 02:23:36 28° SSE
Cosmos 1825 Rocket 4.1 02:22:59 44° WNW 02:22:59 44° WNW 02:27:06 10° N
CENTAUR R/B 2.2 02:24:36 50° SSW 02:26:09 89° ESE 02:32:49 10° NE
Cosmos 2322 Rocket 2.3 02:24:50 44° S 02:26:35 69° ESE 02:32:11 10° NNE
H-2A R/B 4.5 02:25:52 10° ENE 02:27:51 12° E 02:29:49 10° ESE
MOZ.5/SAFIR/RUBIN 5/SL-8 3.6 02:30:28 57° SSW 02:31:17 72° WSW 02:35:58 10° NNW
OAO 3 Rocket 3.6 02:33:03 43° SSE 02:33:03 43° SSE 02:37:03 10° ESE
ADEOS II 2.9 02:28:17 10° NNE 02:33:18 44° E 02:35:56 25° SSE
ATLAS 5 CENTAUR R/B 2.6 02:29:43 10° NNW 02:34:19 54° NE 02:40:00 10° SE
ALOS 3.1 02:31:23 10° NNE 02:35:44 42° E 02:37:41 27° SSE
Meteor 1-25 Rocket 4.3 02:36:58 43° SW 02:38:39 62° WNW 02:44:18 10° N
NOSS 3-2 (A) 3.5 02:37:39 35° SSE 02:39:17 49° ESE 02:44:39 10° NE
Cosmos 2263 Rocket 3.9 02:37:47 10° WNW 02:40:19 17° W 02:40:19 17° W
Envisat 3.7 02:42:07 10° NNE 02:47:02 49° E 02:49:58 23° SSE
Meteor 1-27 Rocket 3.8 02:42:53 10° NNW 02:48:46 67° W 02:51:36 31° SSW
Milstar 3 Cent rocket 3.8 02:49:25 23° S 02:49:31 23° S 02:53:50 10° ESE
USA 276 3.7 02:51:56 22° NNW 02:52:11 23° NNW 02:54:21 10° NNE
SL-16 R/B 3.9 02:48:19 10° SE 02:54:01 38° ENE 02:59:44 10° N
Cosmos 2181 Rocket 3.9 02:49:45 10° NNW 02:55:50 65° W 02:59:11 27° SSW
NOAA 11 4.2 02:51:43 10° NNE 02:57:11 76° ESE 03:00:17 26° S
SL-16 R/B 3.0 02:55:28 27° WSW 02:57:46 39° WNW 03:03:04 10° N
FENGYUN 3A 4.1 02:52:52 10° N 02:58:04 48° WNW 03:00:12 32° SW
Uosat 12 SS-18 rocket 4.1 02:57:38 41° WSW 02:58:57 66° NW 03:03:34 10° NNE
Cosmos 2333 Rocket 2.4 02:57:35 33° SW 03:00:04 60° WNW 03:05:42 10° NNE
Cosmos 1743 4.4 03:01:59 17° WNW 03:01:59 17° WNW 03:03:51 10° NNW
CZ-3 R/B 4.4 02:10:16 10° W 03:02:34 60° SSW 03:15:35 10° ESE
Cosmos 1842 Rocket 3.7 02:58:21 10° NNW 03:02:38 54° W 03:03:56 38° SSW
Cosmos 1707 2.3 03:02:07 10° NNW 03:05:21 58° W 03:05:36 56° WSW
Cosmos 44 Rocket 4.4 03:03:42 23° W 03:05:38 31° NW 03:09:52 10° NNE
Cosmos 1295 Rocket 4.5 03:03:44 28° SSW 03:07:02 66° W 03:13:12 10° N
Meteor 1-5 Rocket 4.5 03:08:04 29° SW 03:10:48 53° WNW 03:16:17 10° N
Meteor 2-4 Rocket 3.5 03:06:23 10° NNW 03:11:43 70° W 03:15:34 19° S
KORONAS-FOTON 4.3 03:12:29 10° NNW 03:15:43 34° W 03:15:57 33° WSW
ATLAS 2AS CENTAUR R/B 3.8 03:11:43 10° WNW 03:16:20 20° WSW 03:16:31 20° WSW
Cosmos 1066 Rocket 4.1 03:14:02 10° N 03:19:25 85° E 03:24:46 10° S
CZ-2C R/B 4.4 03:19:25 10° NE 03:23:39 26° E 03:27:55 10° SSE
COSMOS 2428 4.0 03:19:35 10° S 03:24:43 36° ESE 03:29:52 10° NE
Cosmos 1140 Rocket 3.9 03:20:06 10° NW 03:24:53 39° WSW 03:27:52 21° SSW
Cosmos 1842 3.6 03:21:52 10° NNW 03:25:01 35° W 03:25:37 32° WSW
Resurs 1-4 Rocket 2.8 03:21:40 10° N 03:26:33 38° WNW 03:29:27 21° WSW
Nadezhda 3 Rocket 3.9 03:21:00 10° N 03:27:11 74° W 03:33:17 10° S
AQUA 3.8 03:22:47 10° NNE 03:27:30 85° ESE 03:31:04 17° SSW
Cosmos 2322 4.5 03:25:37 11° S 03:30:47 48° ESE 03:36:14 10° NE
SJ 16-02 4.0 03:29:41 10° NNE 03:32:58 21° ENE 03:36:14 10° ESE
Cosmos 1536 2.8 03:33:09 15° S 03:36:10 69° E 03:39:53 10° NNE
METEOR-M 4.1 03:32:11 10° NNE 03:37:33 86° ESE 03:42:29 12° SSW
Cosmos 1844 Rocket 3.4 03:32:43 10° NW 03:37:38 32° WSW 03:41:29 15° SSW
Cosmos 1151 Rocket 2.9 03:34:07 10° N 03:38:25 75° W 03:42:39 10° S
ATLAS CENTAUR R/B 1.1 03:37:04 22° SSW 03:39:18 73° ESE 03:43:03 10° NE
Cosmos 407 Rocket 3.6 03:34:58 10° NNW 03:40:07 56° WSW 03:45:17 10° S
H-2A R/B 3.9 03:37:26 10° NNW 03:40:08 17° WNW 03:41:58 13° W
CZ-2D R/B 3.1 03:35:43 10° N 03:40:15 31° WNW 03:43:22 17° WSW
Cosmos 1844 4.4 03:37:09 10° NW 03:42:14 34° WSW 03:47:19 10° SSW
SeaSat 1 3.1 03:40:07 13° S 03:43:56 32° WSW 03:48:20 10° NW
Cosmos 2327 Rocket 4.4 03:41:15 11° SSW 03:47:11 76° W 03:53:20 10° N
Cosmos 2360 Rocket 3.3 03:44:48 15° WSW 03:48:34 31° WNW 03:53:31 10° N
ARIANE 6 FM1 Upper Stage 3.2 03:46:47 18° WSW 03:49:24 44° NW 03:53:14 10° NNE
Delta 2 Rocket 3.7 03:50:48 15° WSW 03:54:00 44° S 03:58:01 10° ESE
ARGOS 4.4 03:50:39 10° NNE 03:55:45 40° E 04:00:48 10° SSE
NOSS 2-2 (C) 3.0 03:55:15 17° SW 03:57:41 58° NW 04:00:42 10° NNE
Cosmos 2084 Rocket 4.4 03:54:56 10° S 03:58:56 41° ESE 04:02:55 10° NE
Cosmos 405 Rocket 2.7 03:57:45 16° SW 04:00:03 43° WNW 04:03:11 10° N
Cosmos 2219 Rocket 2.9 03:58:35 14° SW 04:03:04 40° WNW 04:08:19 10° N
H-2A R/B 3.2 04:02:32 10° N 04:06:26 83° WNW 04:10:16 10° SSW
Meteor 1-28 Rocket 2.9 04:03:29 10° S 04:06:46 57° W 04:10:05 10° NNW
H-2A R/B 2.0 04:02:46 10° N 04:07:39 67° WNW 04:12:29 10° SSW
Iridium 4 Rocket 3.8 04:03:58 10° S 04:09:45 88° W 04:15:16 10° N
Cosmos 1766 Rocket 3.5 04:05:34 10° S 04:09:51 87° E 04:14:10 10° N
BREEZE M DEB (TANK) 4.4 04:07:12 10° NW 04:10:23 19° N 04:12:18 10° NE
Cosmos 2322 Rocket 3.9 04:07:17 10° W 04:11:09 19° NW 04:15:01 10° N
ALOS 3.9 04:09:14 10° NNW 04:12:23 19° WNW 04:15:33 10° WSW
Meteor 2-9 Rocket 4.4 04:06:34 10° S 04:12:25 85° E 04:18:17 10° N
ADEOS II 3.5 04:08:30 10° NNW 04:12:32 23° WNW 04:16:33 10° WSW
In-Cosmos 22 4.1 04:08:14 10° NNW 04:13:32 69° W 04:18:53 10° S
Lacrosse 4 Rocket 2.3 04:10:02 10° S 04:13:53 45° ESE 04:17:51 10° NE
Cosmos 1954 Rocket 3.9 04:08:48 10° NNW 04:13:59 75° WSW 04:19:10 10° S
Cosmos 676 Rocket 4.1 04:08:55 10° NNW 04:14:06 83° ENE 04:19:18 10° SSE
COSMOS 2455 4.2 04:09:32 10° S 04:14:55 36° ESE 04:20:20 10° NE
OAO 3 Rocket 3.8 04:10:57 10° W 04:15:18 37° SSW 04:19:35 10° SE
TIMED 4.4 04:12:38 10° NNW 04:16:56 85° WSW 04:21:11 10° SSE
ATLAS 5 CENTAUR R/B 3.2 04:13:09 10° WNW 04:17:05 22° WSW 04:21:36 10° SSW
CENTAUR R/B 4.3 04:13:23 10° W 04:17:53 21° NNW 04:23:08 10° NNE
USA 281 4.2 04:12:18 10° NE 04:18:37 47° ESE 04:24:53 10° S
NOSS 3-2 (C) 3.2 04:15:26 10° SW 04:20:22 67° NW 04:26:13 10° NNE
UNK 3.7 04:16:02 10° SSE 04:20:34 83° WSW 04:25:09 10° NNW
Cosmos 1821 Rocket 4.3 04:15:13 10° S 04:21:17 74° E 04:27:29 10° N
Cosmos 2251 Rocket 4.1 04:18:09 10° NW 04:22:58 37° WSW 04:27:44 10° SSW
ACS3 Solar Sail 3.7 04:18:37 10° NE 04:23:48 29° E 04:29:02 10° SSE
Okean 3 Rocket 4.5 04:20:31 10° S 04:24:53 53° E 04:29:17 10° NNE
Cosmos 2218 Rocket 4.1 04:23:46 10° SSW 04:29:53 62° W 04:36:00 10° N
BREEZE-M DEB (TANK) 2.8 04:25:08 10° WSW 04:31:27 87° NNW 04:34:01 10° ENE
